PROBA-1 1 26958U 01049B 26121.86913612 .00002425 00000+0 16016-3 0 9991 2 26958 97.9611 128.7885 0053319 279.9831 79.5380 15.07323976336641 CUTE-1 (CO-55) 1 27844U 03031E 26121.46227727 .00000347 00000+0 16912-3 0 9996 2 27844 98.6752 130.6070 0008831 327.8386 32.2254 14.24306365185026 CUBESAT XI-IV (CO-57) 1 27848U 03031J 26121.00566327 .00000259 00000+0 13282-3 0 9991 2 27848 98.6788 129.9070 0009102 348.5967 11.5004 14.23594934184669 APRIZESAT 4 1 35684U 09041D 26121.72810689 .00000984 00000+0 12369-3 0 9997 2 35684 98.1420 196.1232 0044622 111.7865 248.8105 14.83809559904477 APRIZESAT 3 1 35686U 09041F 26121.68492699 .00002223 00000+0 19646-3 0 9994 2 35686 98.1994 272.7020 0061208 219.6690 140.0045 14.96077747909420 PROBA-2 1 36037U 09059B 26121.74790294 .00000214 00000+0 60310-4 0 9996 2 36037 98.2449 305.7454 0014444 66.7675 293.5042 14.54842462874777 APRIZESAT 5 1 37792U 11044E 26121.72753404 .00000986 00000+0 13178-3 0 9997 2 37792 98.2441 53.4607 0052870 151.0373 209.3790 14.80980448791918 APRIZESAT 6 1 37793U 11044F 26121.72983632 .00000735 00000+0 11110-3 0 9992 2 37793 98.2390 31.2772 0042009 233.6421 147.5784 14.76852401790291 PROBA-V 1 39159U 13021A 26121.52018797 .00000080 00000+0 53124-4 0 9991 2 39159 98.3563 102.4379 0002934 270.7061 89.3782 14.23586890674471 APRIZESAT 7 1 39416U 13066A 26121.86355214 .00001510 00000+0 15489-3 0 9991 2 39416 97.7676 75.7625 0036132 7.5196 352.6557 14.91451957674323 APRIZESAT 8 1 39425U 13066K 26121.72969993 .00001286 00000+0 14495-3 0 9997 2 39425 97.8192 69.8591 0047524 79.1200 281.5360 14.87550653672767 BUGSAT-1 (TITA) 1 40014U 14033E 26121.81275968 .00006419 00000+0 34334-3 0 9997 2 40014 98.0409 211.6727 0027795 341.9893 18.0350 15.15116876648819 SAUDISAT 4 1 40016U 14033G 26121.65597060 .00000852 00000+0 11916-3 0 9997 2 40016 97.7518 269.4182 0043869 223.4696 136.3055 14.79474856639190 APRIZESAT 9 1 40018U 14033J 26121.84886177 .00000515 00000+0 83307-4 0 9990 2 40018 97.8990 256.1984 0065897 350.5014 9.4943 14.74161270636732 APRIZESAT 10 1 40019U 14033K 26121.79964499 .00000620 00000+0 10461-3 0 9996 2 40019 97.9579 249.8132 0080026 62.4549 298.4759 14.70841447635432 TECHDEMOSAT-1 (TDS-1) 1 40076U 14037H 26121.86161919 .00009800 00000+0 56555-3 0 9990 2 40076 98.3807 109.5158 0007962 71.7000 288.5094 15.12562260641223 TECHNOSAT 1 42829U 17042E 26121.70230829 .00003873 00000+0 27879-3 0 9998 2 42829 97.4239 281.1529 0016026 250.3882 109.5615 15.04675574479711 FLYING LAPTOP 1 42831U 17042G 26121.85351279 .00006544 00000+0 51729-3 0 9999 2 42831 97.4477 279.2384 0017813 282.5905 77.3328 15.00852131479505 HAWK-A 1 43765U 18099H 26121.74086672 .00009059 00000+0 36923-3 0 9992 2 43765 97.3951 174.5938 0036957 89.5400 271.0072 15.24045669406027 HAWK-B 1 43794U 18099AN 26121.64184216 .00008144 00000+0 35125-3 0 9993 2 43794 97.4003 174.0072 0034124 106.5945 253.9043 15.22265728405956 HAWK-C 1 43799U 18099AT 26121.68970146 .00011595 00000+0 42353-3 0 9992 2 43799 97.3927 175.2311 0042826 90.5624 270.0522 15.27381555406818 SALSAT 1 46495U 20068K 26121.56290308 .00009759 00000+0 34759-3 0 9999 2 46495 97.8855 121.8158 0011683 104.4237 255.8298 15.29104891308233 HAWK-2C 1 47502U 21006CT 26121.65348522 .00007820 00000+0 23913-3 0 9991 2 47502 97.2316 166.9016 0007138 22.9317 337.2244 15.34101887292365 HAWK-2A 1 47505U 21006CW 26121.85207575 .00007031 00000+0 21517-3 0 9990 2 47505 97.2358 167.7467 0006836 26.8521 333.3075 15.34115693292399 HAWK-2B 1 47508U 21006CZ 26121.65344184 .00009002 00000+0 27464-3 0 9996 2 47508 97.2231 165.9601 0007283 24.1611 335.9972 15.34129105292364 HAWK-3B 1 48931U 21059BE 26121.79019037 .00045302 00000+0 44519-3 0 9999 2 48931 97.6691 314.2445 0006128 135.4146 224.7607 15.65887993270580 HAWK-3C 1 48948U 21059BX 26121.59819212 .00047776 00000+0 46982-3 0 9991 2 48948 97.6819 319.6379 0006531 136.0690 224.1089 15.65856662270558 HAWK-3A 1 48957U 21059CG 26121.78975823 .00045675 00000+0 44896-3 0 9991 2 48957 97.6767 317.0900 0006209 135.4496 224.7263 15.65879637270581 HAWK-5C 1 52754U 22057Y 26121.38397780 .00027424 00000+0 49516-3 0 9992 2 52754 97.6528 278.1206 0003940 225.3070 134.7860 15.49701179219097 HAWK-5B 1 52756U 22057AA 26121.70668757 .00023273 00000+0 42043-3 0 9991 2 52756 97.6538 276.8059 0004251 220.7650 139.3283 15.49717959219149 HAWK-5A 1 52757U 22057AB 26121.70645196 .00023302 00000+0 42098-3 0 9997 2 52757 97.6534 277.6395 0004441 223.0903 137.0001 15.49715454219147 HAWK-6B 1 55324U 23011A 26121.74858205 .00005932 00000+0 25868-3 0 9997 2 55324 40.4995 262.8453 0001855 40.8138 319.2809 15.22514929180769 HAWK-6C 1 55326U 23011C 26121.74794123 .00006142 00000+0 26749-3 0 9990 2 55326 40.4981 259.6927 0002507 25.7062 334.3872 15.22519112180777 HAWK-6A 1 55327U 23011D 26121.74797916 .00006071 00000+0 26450-3 0 9994 2 55327 40.4993 261.3126 0002228 19.8979 340.1916 15.22517594180779 HAWK-7A 1 56191U 23054P 26121.65259536 .00011224 00000+0 42745-3 0 9993 2 56191 97.2763 10.1758 0002813 162.9378 197.1956 15.26886969169925 HAWK-7B 1 56193U 23054R 26121.65253834 .00006939 00000+0 26556-3 0 9999 2 56193 97.2789 8.4229 0001935 159.1404 200.9914 15.26870057169928 HAWK-7C 1 56200U 23054Y 26121.65243181 .00006821 00000+0 26108-3 0 9995 2 56200 97.2764 9.2062 0002454 153.2777 206.8589 15.26869569169928